Regional Weather Roundup
Issued by NWS

Current Version | Previous Version | Text Only | Print | Product List | Glossary On
Versions: 1 2 3 4 5 6 7 8 9 10 11 12 13 14 15 16 17 18 19 20 21 22 23 24 25 26 27 28 29 30 31 32 33 34 35 36 37 38 39 40 41 42 43 44 45 46 47 48 49 50
000
ASUS45 KBOU 261307
RWRCO

WEATHER ROUNDUP FOR COLORADO
NATIONAL WEATHER SERVICE DENVER/BOULDER CO
600 AM MST SUN FEB 26 2017

NOTE: "FAIR" INDICATES FEW OR NO CLOUDS BELOW 12000 FEET WITH NO
SIGNIFICANT WEATHER AND/OR OBSTRUCTIONS TO VISIBILITY.

COZ001>005-013-030-031-261400-
...NORTHWEST COLORADO...

CITY           SKY/WX    TMP DP  RH WIND       PRES   REMARKS
CRAIG          FAIR       1  -4  79 CALM      29.91S
HAYDEN         FAIR       5   0  78 E7        29.88R WCI  -7
MEEKER         FAIR       1  -5  75 NE5       29.91R WCI  -9
MOUNT WERNER   NOT AVBL
STEAMBOAT SPGS CLOUDY     7   1  78 CALM      29.87S
WALDEN         NOT AVBL
$$

COZ006>008-011-261400-
...WEST CENTRAL VALLEYS...

CITY           SKY/WX    TMP DP  RH WIND       PRES   REMARKS
GRAND JUNCTION FAIR      14  10  84 E5        29.94S WCI   6
MONTROSE       FAIR      21  14  74 CALM      29.95R
EAGLE          FAIR      10   3  73 VRB5      29.93R WCI   2
RIFLE          FAIR      15   9  76 CALM      29.95R
DELTA          FAIR      21  12  66 CALM      29.94S
NUCLA          FAIR      19  16  86 E7        29.95S WCI  10
$$

COZ017>023-064>068-261400-
...SOUTHWEST COLORADO...

CITY           SKY/WX    TMP DP  RH WIND       PRES   REMARKS
DURANGO        FAIR      19   9  65 CALM      29.86S
CORTEZ         FAIR      20  16  84 E3        29.91R
PAGOSA SPRINGS FAIR      11   4  74 CALM      29.85R
TELLURIDE      LGT SNOW  12  10  91 CALM      29.84F
WOLF CREEK PAS LGT SNOW   3   1  92 S14G20    29.77S WCI -15
$$

COZ009-010-012-014-032>034-037-058>063-261400-
...CENTRAL COLORADO...

CITY           SKY/WX    TMP DP  RH WIND       PRES   REMARKS
ASPEN          FAIR       5  -1  76 S7        29.84R WCI  -7
BUENA VISTA    FAIR      16  -5  38 NW14      29.77S WCI   1
COPPER MTN     FAIR       0 -17  46 MISG      29.66S
BERTHOUD PASS  FAIR      -9 -18  64 NW33G40   29.56R WCI -40
COTTONWOOD PAS FAIR      12  -6  44 W13G24    29.69S WCI  -3
GUNNISON       FAIR       5   3  91 NW3       29.87R
KREMMLING      FAIR       3  -2  78 CALM      29.88R
LEADVILLE      FAIR      -3 -11  68 NE8       29.73S WCI -18
MONARCH PASS   CLOUDY     0  -6  78 W41G48    29.69F WCI -30
SALIDA         FAIR      22   2  42 SW16G26   29.85S WCI   8
SUNLIGHT       NOT AVBL
WILKERSON PASS FAIR       3 -15  43 W17G26    29.62S WCI -17
$$

COZ069>075-261400-
...SAN LUIS VALLEY/SANGRE DE CRISTO MOUNTAINS...

CITY           SKY/WX    TMP DP  RH WIND       PRES   REMARKS
ALAMOSA        FAIR      13   7  77 NE5       29.82R WCI   5
LA VETA PASS   CLOUDY    10   3  72 S14G21    29.72S WCI  -5
SAGUACHE       FAIR      14   5  67 NW8       29.83R WCI   3
$$

COZ035-036-038>040-261400-
...NORTHERN COLORADO FRONT RANGE...

CITY           SKY/WX    TMP DP  RH WIND       PRES   REMARKS
DENVER INTL AP FAIR      11   3  70 S10       29.78S WCI  -3
DMNS CITY PARK   N/A     19   7  59 SW5       29.78S WCI  12
AURORA         PTCLDY    15   3  59 SE10      29.78R WCI   2
FRONT RANGE AP NOT AVBL
ERIE MUNI ARPT FAIR      16   7  67 CALM      29.79S
BOULDER MUN AP FAIR      19   9  63 CALM      29.79R
CENTENNIAL     FAIR      15   2  56 S6        29.76S WCI   6
BROOMFIELD     CLEAR     27   5  39 NE7       29.77S WCI  19
FORT COLLINS   FAIR      14   8  77 SW6       29.80R WCI   5
LONGMONT       FAIR      17   9  68 W3        29.82R
$$

COZ041-046-047-076>085-087-088-261400-
...PIKES PEAK/PALMER DIVIDE AND SOUTHERN FOOTHILLS...

CITY           SKY/WX    TMP DP  RH WIND       PRES   REMARKS
COLO. SPRINGS  FAIR      18  -2  41 NE6       29.77R WCI  10
A. F. ACADEMY  FAIR      20  -4  33 CALM      29.74R
SCHRIEVER AFB  FAIR      15  -1  48 N6        29.77S WCI   6
ELLICOTT       NOT AVBL
FALCON         FAIR      13  -1  53 NW5       29.76S WCI   5
FORT CARSON    FAIR      20  -1  40 SE7       29.76R WCI  11
LIMON          FAIR       0  -2  91 NW6       29.80R WCI -12
MONUMENT HILL  FAIR       9   0  66 SE6       29.75S WCI  -1
TRINIDAD       FAIR      13   0  56 W8        29.81R WCI   2
$$

COZ042>045-048>051-090-091-261400-
...NORTHEAST COLORADO...

CITY           SKY/WX    TMP DP  RH WIND       PRES   REMARKS
GREELEY ARPT   FAIR      12   8  84 SE5       29.82S WCI   4
AKRON          FAIR      20   6  55 NE3       29.82S
BURLINGTON     FAIR       6   1  80 W8        29.86R WCI  -7
WRAY           NOT AVBL
STERLING       NOT AVBL
HOLYOKE        FAIR      16  10  79 W8        29.86S WCI   5
FORT MORGAN    FAIR      14   4  62 CALM      29.83S
$$

COZ086-089-092>099-261400-
...SOUTHEAST COLORADO...

CITY           SKY/WX    TMP DP  RH WIND       PRES   REMARKS
PUEBLO         FAIR      13   0  56 CALM      29.81S
LA JUNTA       FAIR      16   4  59 S3        29.85R
LAMAR          FAIR       5   0  79 SW7       29.85R WCI  -7
SPRINGFIELD      N/A     13   2  61 W7        29.82R WCI   3
$$



USA.gov is the U.S. government's official web portal to all federal, state and local government web resources and services.